Regional Weather Roundup
Issued by NWS

Home | Current Version | Previous Version | Text Only | Print | Product List | Glossary On
Versions: 1 2 3 4 5 6 7 8 9 10 11 12 13 14 15 16 17 18 19 20 21 22 23 24 25 26 27 28
000
ASUS43 KMPX 100410
RWRMN
WEATHER ROUNDUP FOR MINNESOTA
NATIONAL WEATHER SERVICE TWIN CITIES/CHANHASSEN MN
1100 PM CDT SUN MAY 09 2021


NOTE: "FAIR" INDICATES FEW OR NO CLOUDS BELOW 12,000 FEET WITH NO
SIGNIFICANT WEATHER AND/OR OBSTRUCTIONS TO VISIBILITY. N/A MEANS
CURRENT SKY AND/OR WEATHER CONDITIONS ARE NOT AVAILABLE.

MNZ060>063-068>070-100500-
   Twin Cities Metro

CITY           SKY/WX    TMP DP  RH WIND       PRES   REMARKS
TWIN CITIES    PTCLDY    50  25  37 E12G21    30.08R
ST PAUL        PTCLDY    50  26  39 NE13      30.09S
CRYSTAL        PTCLDY    47  25  42 NE6       30.08R
LAKEVILLE      PTCLDY    48  25  40 NE9       30.07S
EDEN PRAIRIE   PTCLDY    50  27  40 E8        30.06R
SOUTH ST PAUL  PTCLDY    50  25  38 NE5       30.08S
$$
MNZ001>005-007-008-013>017-022>024-027-028-100500-
   Northwest Minnesota

CITY           SKY/WX    TMP DP  RH WIND       PRES   REMARKS
BEMIDJI        PTCLDY    37  21  53 NE7       30.18S
HALLOCK        MOCLDY    45  21  39 E9        30.24R
ROSEAU           N/A     46 N/A N/A NE6       30.24S
WARROAD        CLOUDY    43  28  56 NE12      30.25S
THIEF RVR FALL CLEAR     41  23  48 NE9       30.23R
CROOKSTON      CLEAR     39  19  45 NE6       30.21R
FOSSTON        CLEAR     37  19  48 NE9       30.20R
DETROIT LAKES  PTCLDY    45  25  45 NE9       30.15R
MOORHEAD       MOCLDY    46  19  34 NE10      30.18R
PARK RAPIDS    PTCLDY    44  22  41 NE9       30.15R
MAHNOMEN       FAIR      38  24  56 N9        30.18R
$$
MNZ006-009>011-018-025>026-100500-
   North Central Minnesota

CITY           SKY/WX    TMP DP  RH WIND       PRES   REMARKS
BAUDETTE       CLOUDY    41  23  48 NE7       30.23S
FLAG ISLAND    CLOUDY    43  21  42 E5        30.25S
INTL FALLS     CLOUDY    41  23  48 NE6       30.21S
WASKISH        CLOUDY    39  21  48 NE5       30.22R
BIG FORK       CLOUDY    39  21  48 NE5       30.24S
LONGVILLE      CLOUDY    43  19  39 NE8       30.16S
GRAND RAPIDS   CLOUDY    41  21  44 CALM      30.19S
CRANE LAKE     CLOUDY    37  27  65 CALM      30.23S
ORR            CLOUDY    37  21  52 CALM      30.18S
COOK           CLOUDY    39  23  52 N3        30.19S
WALKER         PTCLDY    42  23  47 NE8       30.17R
$$
MNZ012-019>021-037-100500-
   Northeast Minnesota

CITY           SKY/WX    TMP DP  RH WIND       PRES   REMARKS
DULUTH         CLOUDY    38  26  62 NE7       30.16S
ELY            CLOUDY    37  21  52 CALM      30.18S
HIBBING        MOCLDY    39  20  46 NE7       30.17S
EVELETH        CLOUDY    39  24  55 CALM      30.19S
DULUTH HARBOR  CLOUDY    41  34  75 NE15      30.18F
TWO HARBORS    CLOUDY    36  27  69 CALM      30.17S
SILVER BAY     CLOUDY    34  25  69 CALM      30.18S
GRAND MARAIS     N/A     37  28  70 CALM      30.18S
G MARAIS ARPRT CLOUDY    34  25  69 N3        30.15S
$$
MNZ029>031-032-039>041-046>048-054>057-064-100500-
   West Central Minnesota

CITY           SKY/WX    TMP DP  RH WIND       PRES   REMARKS
FERGUS FALLS   MOCLDY    48  27  43 NE7G17    30.10R
WHEATON        PTCLDY    46  19  34 N7        30.13R
MORRIS         PTCLDY    48  16  27 NE10      30.10R
ALEXANDRIA     PTCLDY    48  24  39 NE10      30.11R
ELBOW LAKE     FAIR      49  28  43 NE9G17    30.12R
WADENA         PTCLDY    46  28  49 NE9       30.13R
GLENWOOD       PTCLDY    45  27  49 NE8       30.10R
APPLETON       MOCLDY    52  19  28 N10       30.07S
BENSON         PTCLDY    48  23  37 E7        30.08R
ORTONVILLE     MOCLDY    52  21  30 N15       30.09R
MADISON        MOCLDY    54  19  26 N10       30.09S
WILLMAR        FAIR      48  25  40 CALM      30.09R
$$
MNZ033>034-036-042>043-049>051-058-059-100500-
   Central Minnesota

CITY           SKY/WX    TMP DP  RH WIND       PRES   REMARKS
ST CLOUD       PTCLDY    46  26  45 NE10G22   30.11R
SAUK CENTRE    MOCLDY    48  28  45 NE14      30.10R
PAYNESVILLE    MOCLDY    48  28  46 E15G21    30.09R
AITKIN         PTCLDY    37  27  65 E6        30.16R
PINE RIVER     CLEAR     45  27  49 E8        30.18R
BRAINERD       PTCLDY    44  26  49 E6        30.15R
STAPLES        PTCLDY    46  27  46 NE3       30.13R
LONG PRAIRIE   FAIR      45  28  53 E10       30.11R
LITTLE FALLS   PTCLDY    43  23  45 E3        30.13R
CAMP RIPLEY    MOCLDY    44  28  52 E10       30.14R
LITCHFIELD     PTCLDY    50  27  40 E7        30.07R
BUFFALO        PTCLDY    48  26  42 MISG      30.10R
MAPLE LAKE     PTCLDY    48  29  48 NE12G21   30.10R
HUTCHINSON     CLEAR     46  27  46 NE8       30.07S
$$
MNZ037-044-045-052-053-100500-
   East Central Minnesota

CITY           SKY/WX    TMP DP  RH WIND       PRES   REMARKS
PRINCETON      PTCLDY    46  28  49 NE6       30.12R
MORA           PTCLDY    39  28  65 NE3       30.15S
CAMBRIDGE      PTCLDY    46  28  49 NE5       30.12S
RUSH CITY      CLOUDY    44  28  52 NE8       30.13S
MOOSE LAKE     CLOUDY    37  28  70 NE5       30.16R
CLOQUET        CLEAR     36  25  64 CALM      30.16S
$$
MNZ071>073-080-081-089-090-097-098-100500-
   Southwest Minnesota

CITY           SKY/WX    TMP DP  RH WIND       PRES   REMARKS
MONTEVIDEO     MOCLDY    50  16  25 NW5       30.07R
GRANITE FALLS  PTCLDY    47  23  39 CALM      30.07S
CANBY          CLOUDY    52  32  46 NW13      30.09S
MARSHALL       CLOUDY    52  32  46 W14       30.08R
REDWOOD FALLS  PTCLDY    51  22  31 SE3       30.05S
OLIVIA         PTCLDY    46  21  36 CALM      30.05S
PIPESTONE        N/A     48  36  61 NW8       30.10S
WINDOM         CLOUDY    54  27  35 CALM      30.07R
WORTHINGTON    CLOUDY    50  35  56 NW14      30.09R
JACKSON        CLOUDY    52  32  46 NW12      30.08R
TRACY          CLOUDY    52  30  42 W6        30.08R
SLAYTON        CLOUDY    49  30  47 W17       30.09R
$$
MNZ065>067-074>077-082>085-091>093-100500-
   South Central Minnesota

CITY           SKY/WX    TMP DP  RH WIND       PRES   REMARKS
MANKATO        PTCLDY    51  28  41 NE9       30.06R
NEW ULM        MOCLDY    54  19  26 E5          N/A
ST JAMES       MOCLDY    50  21  32 NE3       30.05S
FAIRMONT       MOCLDY    50  21  32 N7        30.06R
GLENCOE        PTCLDY    48  26  42 NE3       30.06S
FARIBAULT      PTCLDY    50  27  40 NE7       30.06S
OWATONNA       PTCLDY    50  28  43 NE9       30.05R
WASECA         PTCLDY    50  27  40 NE8       30.07R
ALBERT LEA     PTCLDY    48  25  40 N5        30.04S
$$
MNZ078>079-086>088-094>096-100500-
   Southeast Minnesota

CITY           SKY/WX    TMP DP  RH WIND       PRES   REMARKS
ROCHESTER      PTCLDY    48  28  46 NE13      30.05R
RED WING       PTCLDY    48  23  37 E6        30.07S
STANTON        PTCLDY    48  28  44 NE10      30.06R
DODGE CENTER   PTCLDY    48  25  40 NE10      30.05R
WINONA         CLEAR     50  28  43 NE6G20    30.07R
AUSTIN         PTCLDY    48  27  43 N3        30.04R
PRESTON        PTCLDY    48  29  47 NE7       30.04R
$$
ABBREVIATIONS USED IN REMARKS
   TC - TEMPERATURES IN CELSIUS
  WCI - WIND CHILL INDEX
   HX - HEAT INDEX
  VSB - VISIBILITY
$$



USA.gov is the U.S. government's official web portal to all federal, state and local government web resources and services.